Time,TemperatureF,DewpointF,PressureIn,WindDirection,WindDirectionDegrees,WindSpeedMPH,WindSpeedGustMPH,Humidity,HourlyPrecipIn,Conditions,Clouds,dailyrainin,SoftwareType,DateUTC
2013-05-30 00:01:00,72.7,68.9,30.00,East,96,1.0,6.0,88,0.00,,,0.00,VWS V14.00,2013-05-30 04:01:00,
2013-05-30 00:06:00,72.8,69.0,30.00,East,83,3.0,7.0,88,0.00,,,0.00,VWS V14.00,2013-05-30 04:06:00,
2013-05-30 00:11:00,72.9,69.5,30.00,ESE,113,1.0,7.0,89,0.00,,,0.00,VWS V14.00,2013-05-30 04:11:00,
2013-05-30 00:16:00,72.9,69.5,30.00,East,83,1.0,4.0,89,0.00,,,0.00,VWS V14.00,2013-05-30 04:16:00,
2013-05-30 00:21:00,73.0,69.6,30.00,ENE,76,0.0,5.0,89,0.00,,,0.00,VWS V14.00,2013-05-30 04:21:00,
2013-05-30 00:26:00,73.0,69.9,30.00,ENE,71,4.0,8.0,90,0.00,,,0.00,VWS V14.00,2013-05-30 04:26:00,
2013-05-30 00:31:00,73.0,69.9,30.00,East,85,2.0,5.0,90,0.00,,,0.00,VWS V14.00,2013-05-30 04:31:00,
2013-05-30 00:36:00,73.0,69.9,30.00,East,88,2.0,5.0,90,0.00,,,0.00,VWS V14.00,2013-05-30 04:36:00,
2013-05-30 00:41:00,72.9,69.8,30.00,ESE,109,2.0,7.0,90,0.00,,,0.00,VWS V14.00,2013-05-30 04:41:00,
2013-05-30 00:46:00,72.9,69.8,30.00,East,88,1.0,4.0,90,0.00,,,0.00,VWS V14.00,2013-05-30 04:46:00,
2013-05-30 00:51:00,72.9,69.8,29.99,East,88,1.0,4.0,90,0.00,,,0.00,VWS V14.00,2013-05-30 04:51:00,
2013-05-30 00:56:00,72.9,70.1,30.00,ENE,66,5.0,6.0,91,0.00,,,0.00,VWS V14.00,2013-05-30 04:56:00,
2013-05-30 01:01:00,72.9,70.1,29.99,East,81,4.0,5.0,91,0.00,,,0.00,VWS V14.00,2013-05-30 05:01:00,
2013-05-30 01:06:00,72.8,70.0,29.99,East,82,2.0,7.0,91,0.00,,,0.00,VWS V14.00,2013-05-30 05:06:00,
2013-05-30 01:11:00,72.8,70.0,29.99,ESE,103,0.0,7.0,91,0.00,,,0.00,VWS V14.00,2013-05-30 05:11:00,
2013-05-30 01:16:00,72.8,70.0,29.99,East,84,0.0,4.0,91,0.00,,,0.00,VWS V14.00,2013-05-30 05:16:00,
2013-05-30 01:21:00,72.8,70.0,29.99,ENE,73,3.0,7.0,91,0.00,,,0.00,VWS V14.00,2013-05-30 05:21:00,
2013-05-30 01:26:00,72.9,69.8,30.00,SE,138,0.0,7.0,90,0.00,,,0.00,VWS V14.00,2013-05-30 05:26:00,
2013-05-30 01:31:00,72.8,69.7,30.00,ENE,74,5.0,5.0,90,0.00,,,0.00,VWS V14.00,2013-05-30 05:31:00,
2013-05-30 01:36:00,72.8,69.7,29.99,SE,125,0.0,7.0,90,0.00,,,0.00,VWS V14.00,2013-05-30 05:36:00,
2013-05-30 01:41:00,72.8,69.7,29.99,East,94,0.0,7.0,90,0.00,,,0.00,VWS V14.00,2013-05-30 05:41:00,
2013-05-30 01:46:00,72.7,69.6,29.99,East,94,0.0,5.0,90,0.00,,,0.00,VWS V14.00,2013-05-30 05:46:00,
2013-05-30 01:51:00,72.7,69.6,29.99,East,92,0.0,6.0,90,0.00,,,0.00,VWS V14.00,2013-05-30 05:51:00,
2013-05-30 01:56:00,72.8,69.7,29.99,ESE,111,0.0,6.0,90,0.00,,,0.00,VWS V14.00,2013-05-30 05:56:00,
2013-05-30 02:01:00,72.8,69.7,29.99,East,90,2.0,6.0,90,0.00,,,0.00,VWS V14.00,2013-05-30 06:01:00,
2013-05-30 02:06:00,72.8,69.7,29.98,East,82,2.0,6.0,90,0.00,,,0.00,VWS V14.00,2013-05-30 06:06:00,
2013-05-30 02:11:00,72.8,69.7,29.98,East,82,2.0,6.0,90,0.00,,,0.00,VWS V14.00,2013-05-30 06:11:00,
2013-05-30 02:16:00,72.8,69.7,29.98,East,82,2.0,2.0,90,0.00,,,0.00,VWS V14.00,2013-05-30 06:16:00,
2013-05-30 02:21:00,72.8,69.7,29.98,East,82,2.0,2.0,90,0.00,,,0.00,VWS V14.00,2013-05-30 06:21:00,
2013-05-30 02:26:00,72.8,69.7,29.98,East,82,2.0,2.0,90,0.00,,,0.00,VWS V14.00,2013-05-30 06:26:00,
2013-05-30 02:31:00,72.8,69.7,29.98,East,82,2.0,2.0,90,0.00,,,0.00,VWS V14.00,2013-05-30 06:31:00,
2013-05-30 02:36:00,72.8,69.7,29.98,East,82,2.0,2.0,90,0.00,,,0.00,VWS V14.00,2013-05-30 06:36:00,
2013-05-30 02:41:00,72.8,69.7,29.98,East,82,2.0,2.0,90,0.00,,,0.00,VWS V14.00,2013-05-30 06:41:00,
2013-05-30 02:46:00,72.8,69.7,29.97,East,82,2.0,2.0,90,0.00,,,0.00,VWS V14.00,2013-05-30 06:46:00,
2013-05-30 02:51:00,72.8,69.7,29.97,East,82,2.0,2.0,90,0.00,,,0.00,VWS V14.00,2013-05-30 06:51:00,
2013-05-30 02:56:00,72.8,69.7,29.97,East,82,2.0,2.0,90,0.00,,,0.00,VWS V14.00,2013-05-30 06:56:00,
2013-05-30 03:01:00,72.8,69.7,29.97,East,82,2.0,2.0,90,0.00,,,0.00,VWS V14.00,2013-05-30 07:01:00,
2013-05-30 03:06:00,72.8,69.7,29.98,East,82,2.0,2.0,90,0.00,,,0.00,VWS V14.00,2013-05-30 07:06:00,
2013-05-30 03:11:00,72.8,69.7,29.98,East,82,2.0,2.0,90,0.00,,,0.00,VWS V14.00,2013-05-30 07:11:00,
2013-05-30 03:16:00,72.8,69.7,29.97,East,82,2.0,2.0,90,0.00,,,0.00,VWS V14.00,2013-05-30 07:16:00,
2013-05-30 03:21:00,72.8,69.7,29.97,East,82,2.0,2.0,90,0.00,,,0.00,VWS V14.00,2013-05-30 07:21:00,
2013-05-30 03:26:00,72.8,69.7,29.97,East,82,2.0,2.0,90,0.00,,,0.00,VWS V14.00,2013-05-30 07:26:00,
2013-05-30 03:31:00,72.8,69.7,29.97,East,82,2.0,2.0,90,0.00,,,0.00,VWS V14.00,2013-05-30 07:31:00,
2013-05-30 03:36:00,72.8,69.7,29.97,East,82,2.0,2.0,90,0.00,,,0.00,VWS V14.00,2013-05-30 07:36:00,
2013-05-30 03:41:00,72.8,69.7,29.98,East,82,2.0,2.0,90,0.00,,,0.00,VWS V14.00,2013-05-30 07:41:00,
2013-05-30 03:46:00,72.8,69.7,29.98,East,82,2.0,2.0,90,0.00,,,0.00,VWS V14.00,2013-05-30 07:46:00,
2013-05-30 03:51:00,72.8,69.7,29.97,East,82,2.0,2.0,90,0.00,,,0.00,VWS V14.00,2013-05-30 07:51:00,
2013-05-30 03:56:00,72.8,69.7,29.97,East,82,2.0,2.0,90,0.00,,,0.00,VWS V14.00,2013-05-30 07:56:00,
2013-05-30 04:01:00,72.8,69.7,29.97,East,82,2.0,2.0,90,0.00,,,0.00,VWS V14.00,2013-05-30 08:01:00,
2013-05-30 04:06:00,72.8,69.7,29.97,East,82,2.0,2.0,90,0.00,,,0.00,VWS V14.00,2013-05-30 08:06:00,
2013-05-30 04:11:00,72.8,69.7,29.97,East,82,2.0,2.0,90,0.00,,,0.00,VWS V14.00,2013-05-30 08:11:00,
2013-05-30 04:16:00,72.8,69.7,29.96,East,82,2.0,2.0,90,0.00,,,0.00,VWS V14.00,2013-05-30 08:16:00,
2013-05-30 04:21:00,72.8,69.7,29.97,East,82,2.0,2.0,90,0.00,,,0.00,VWS V14.00,2013-05-30 08:21:00,
2013-05-30 04:26:00,72.8,69.7,29.97,East,82,2.0,2.0,90,0.00,,,0.00,VWS V14.00,2013-05-30 08:26:00,
2013-05-30 04:31:00,72.8,69.7,29.96,East,82,2.0,2.0,90,0.00,,,0.00,VWS V14.00,2013-05-30 08:31:00,
2013-05-30 04:36:00,72.8,69.7,29.96,East,82,2.0,2.0,90,0.00,,,0.00,VWS V14.00,2013-05-30 08:36:00,
2013-05-30 04:41:00,72.8,69.7,29.96,East,82,2.0,2.0,90,0.00,,,0.00,VWS V14.00,2013-05-30 08:41:00,
2013-05-30 04:46:00,72.8,69.7,29.96,East,82,2.0,2.0,90,0.00,,,0.00,VWS V14.00,2013-05-30 08:46:00,
2013-05-30 04:51:00,72.8,69.7,29.96,East,82,2.0,2.0,90,0.00,,,0.00,VWS V14.00,2013-05-30 08:51:00,
2013-05-30 04:56:00,72.8,69.7,29.96,East,82,2.0,2.0,90,0.00,,,0.00,VWS V14.00,2013-05-30 08:56:00,
2013-05-30 05:01:00,72.8,69.7,29.97,East,82,2.0,2.0,90,0.00,,,0.00,VWS V14.00,2013-05-30 09:01:00,
2013-05-30 05:06:00,72.8,69.7,29.97,East,82,2.0,2.0,90,0.00,,,0.00,VWS V14.00,2013-05-30 09:06:00,
2013-05-30 05:11:00,72.8,69.7,29.97,East,82,2.0,2.0,90,0.00,,,0.00,VWS V14.00,2013-05-30 09:11:00,
2013-05-30 05:16:00,72.8,69.7,29.97,East,82,2.0,2.0,90,0.00,,,0.00,VWS V14.00,2013-05-30 09:16:00,
2013-05-30 05:21:00,72.8,69.7,29.97,East,82,2.0,2.0,90,0.00,,,0.00,VWS V14.00,2013-05-30 09:21:00,
2013-05-30 05:26:00,72.8,69.7,29.97,East,82,2.0,2.0,90,0.00,,,0.00,VWS V14.00,2013-05-30 09:26:00,
2013-05-30 05:31:00,72.8,69.7,29.96,East,82,2.0,2.0,90,0.00,,,0.00,VWS V14.00,2013-05-30 09:31:00,
2013-05-30 05:36:00,72.8,69.7,29.97,East,82,2.0,2.0,90,0.00,,,0.00,VWS V14.00,2013-05-30 09:36:00,
2013-05-30 05:41:00,72.8,69.7,29.96,East,82,2.0,2.0,90,0.00,,,0.00,VWS V14.00,2013-05-30 09:41:00,
2013-05-30 05:46:00,72.8,69.7,29.96,East,82,2.0,2.0,90,0.00,,,0.00,VWS V14.00,2013-05-30 09:46:00,
2013-05-30 05:51:00,72.8,69.7,29.97,East,82,2.0,2.0,90,0.00,,,0.00,VWS V14.00,2013-05-30 09:51:00,
2013-05-30 05:56:00,72.8,69.7,29.97,East,82,2.0,2.0,90,0.00,,,0.00,VWS V14.00,2013-05-30 09:56:00,
2013-05-30 06:01:00,72.8,69.7,29.97,East,82,2.0,2.0,90,0.00,,,0.00,VWS V14.00,2013-05-30 10:01:00,
2013-05-30 06:06:00,72.8,69.7,29.97,East,82,2.0,2.0,90,0.00,,,0.00,VWS V14.00,2013-05-30 10:06:00,
2013-05-30 06:11:00,72.8,69.7,29.97,East,82,2.0,2.0,90,0.00,,,0.00,VWS V14.00,2013-05-30 10:11:00,
2013-05-30 06:16:00,72.8,69.7,29.97,East,82,2.0,2.0,90,0.00,,,0.00,VWS V14.00,2013-05-30 10:16:00,
2013-05-30 06:21:00,72.8,69.7,29.97,East,82,2.0,2.0,90,0.00,,,0.00,VWS V14.00,2013-05-30 10:21:00,
2013-05-30 06:26:00,72.8,69.7,29.97,East,82,2.0,2.0,90,0.00,,,0.00,VWS V14.00,2013-05-30 10:26:00,
2013-05-30 06:31:00,72.8,69.7,29.97,East,82,2.0,2.0,90,0.00,,,0.00,VWS V14.00,2013-05-30 10:31:00,
2013-05-30 06:36:00,72.8,69.7,29.97,East,82,2.0,2.0,90,0.00,,,0.00,VWS V14.00,2013-05-30 10:36:00,
2013-05-30 06:41:00,72.8,69.7,29.97,East,82,2.0,2.0,90,0.00,,,0.00,VWS V14.00,2013-05-30 10:41:00,
2013-05-30 06:46:00,72.8,69.7,29.98,East,82,2.0,2.0,90,0.00,,,0.00,VWS V14.00,2013-05-30 10:46:00,
2013-05-30 06:51:00,72.8,69.7,29.98,East,82,2.0,2.0,90,0.00,,,0.00,VWS V14.00,2013-05-30 10:51:00,
2013-05-30 06:56:00,72.8,69.7,29.98,East,82,2.0,2.0,90,0.00,,,0.00,VWS V14.00,2013-05-30 10:56:00,
2013-05-30 07:01:00,72.8,69.7,29.98,East,82,2.0,2.0,90,0.00,,,0.00,VWS V14.00,2013-05-30 11:01:00,
2013-05-30 07:06:00,72.8,69.7,29.98,East,82,2.0,2.0,90,0.00,,,0.00,VWS V14.00,2013-05-30 11:06:00,
2013-05-30 07:11:00,72.8,69.7,29.98,East,82,2.0,2.0,90,0.00,,,0.00,VWS V14.00,2013-05-30 11:11:00,
2013-05-30 07:16:00,72.8,69.7,29.98,East,82,2.0,2.0,90,0.00,,,0.00,VWS V14.00,2013-05-30 11:16:00,
2013-05-30 07:21:00,72.8,69.7,29.98,East,82,2.0,2.0,90,0.00,,,0.00,VWS V14.00,2013-05-30 11:21:00,
2013-05-30 07:26:00,72.8,69.7,29.99,East,82,2.0,2.0,90,0.00,,,0.00,VWS V14.00,2013-05-30 11:26:00,
2013-05-30 07:31:00,72.8,69.7,29.99,East,82,2.0,2.0,90,0.00,,,0.00,VWS V14.00,2013-05-30 11:31:00,
2013-05-30 07:36:00,73.4,70.3,29.99,ENE,67,1.0,2.0,90,0.00,,,0.00,VWS V14.00,2013-05-30 11:36:00,
2013-05-30 07:41:00,73.7,70.6,29.99,ENE,69,0.0,6.0,90,0.00,,,0.00,VWS V14.00,2013-05-30 11:41:00,
2013-05-30 07:46:00,73.9,70.5,29.99,East,97,0.0,4.0,89,0.00,,,0.00,VWS V14.00,2013-05-30 11:46:00,
2013-05-30 07:51:00,74.2,70.8,29.99,East,81,4.0,6.0,89,0.00,,,0.00,VWS V14.00,2013-05-30 11:51:00,
2013-05-30 07:56:00,74.5,70.7,30.00,NE,55,5.0,7.0,88,0.00,,,0.00,VWS V14.00,2013-05-30 11:56:00,
2013-05-30 08:01:00,74.7,70.9,30.00,ENE,61,3.0,5.0,88,0.00,,,0.00,VWS V14.00,2013-05-30 12:01:00,
2013-05-30 08:06:00,75.0,71.2,29.99,ENE,60,2.0,8.0,88,0.00,,,0.00,VWS V14.00,2013-05-30 12:06:00,
2013-05-30 08:11:00,75.4,71.3,29.99,NE,55,1.0,8.0,87,0.00,,,0.00,VWS V14.00,2013-05-30 12:11:00,
2013-05-30 08:16:00,75.8,71.3,30.00,ENE,61,3.0,7.0,86,0.00,,,0.00,VWS V14.00,2013-05-30 12:16:00,
2013-05-30 08:21:00,76.2,71.7,30.00,ESE,109,7.0,7.0,86,0.00,,,0.00,VWS V14.00,2013-05-30 12:21:00,
2013-05-30 08:26:00,76.6,72.1,30.00,NE,53,1.0,9.0,86,0.00,,,0.00,VWS V14.00,2013-05-30 12:26:00,
2013-05-30 08:31:00,76.9,72.1,30.00,ESE,115,1.0,6.0,85,0.00,,,0.00,VWS V14.00,2013-05-30 12:31:00,
2013-05-30 08:36:00,77.4,72.2,30.00,NE,55,0.0,8.0,84,0.00,,,0.00,VWS V14.00,2013-05-30 12:36:00,
2013-05-30 08:41:00,77.6,72.0,30.00,NE,49,7.0,10.0,83,0.00,,,0.00,VWS V14.00,2013-05-30 12:41:00,
2013-05-30 08:46:00,77.9,72.0,30.01,NE,46,8.0,8.0,82,0.00,,,0.00,VWS V14.00,2013-05-30 12:46:00,
2013-05-30 08:51:00,78.0,72.1,30.00,ENE,77,0.0,8.0,82,0.00,,,0.00,VWS V14.00,2013-05-30 12:51:00,
2013-05-30 08:56:00,78.0,72.1,30.00,ENE,74,1.0,9.0,82,0.00,,,0.00,VWS V14.00,2013-05-30 12:56:00,
2013-05-30 09:00:00,78.1,72.2,30.00,SE,126,4.0,6.0,82,0.00,,,0.00,VWS V14.00,2013-05-30 13:00:00,
2013-05-30 09:05:00,78.3,72.4,30.01,ENE,63,3.0,12.0,82,0.00,,,0.00,VWS V14.00,2013-05-30 13:05:00,
2013-05-30 09:11:00,78.8,72.8,30.00,ESE,115,8.0,12.0,82,0.00,,,0.00,VWS V14.00,2013-05-30 13:11:00,
2013-05-30 09:16:00,79.3,72.6,30.00,ESE,119,0.0,5.0,80,0.00,,,0.00,VWS V14.00,2013-05-30 13:16:00,
2013-05-30 09:21:00,79.8,72.7,30.00,SE,130,8.0,13.0,79,0.00,,,0.00,VWS V14.00,2013-05-30 13:21:00,
2013-05-30 09:26:00,80.0,72.5,30.00,SSE,150,7.0,13.0,78,0.00,,,0.00,VWS V14.00,2013-05-30 13:26:00,
2013-05-30 09:31:00,80.4,73.3,30.00,East,90,0.0,7.0,79,0.00,,,0.00,VWS V14.00,2013-05-30 13:31:00,
2013-05-30 09:36:00,80.8,73.3,30.00,SSE,148,8.0,9.0,78,0.00,,,0.00,VWS V14.00,2013-05-30 13:36:00,
2013-05-30 09:41:00,80.9,73.0,30.00,SSE,148,8.0,14.0,77,0.00,,,0.00,VWS V14.00,2013-05-30 13:41:00,
2013-05-30 09:45:00,80.8,72.9,30.00,ENE,77,6.0,12.0,77,0.00,,,0.00,VWS V14.00,2013-05-30 13:45:00,
2013-05-30 09:50:00,81.0,72.7,30.00,SE,130,2.0,12.0,76,0.00,,,0.00,VWS V14.00,2013-05-30 13:50:00,
2013-05-30 09:55:00,81.2,73.7,30.00,East,85,11.0,12.0,78,0.00,,,0.00,VWS V14.00,2013-05-30 13:55:00,
2013-05-30 10:00:00,81.6,73.3,30.00,SE,139,10.0,10.0,76,0.00,,,0.00,VWS V14.00,2013-05-30 14:00:00,
2013-05-30 10:05:00,81.6,72.9,30.00,East,80,5.0,13.0,75,0.00,,,0.00,VWS V14.00,2013-05-30 14:05:00,
2013-05-30 10:10:00,81.5,72.8,29.99,ESE,114,6.0,13.0,75,0.00,,,0.00,VWS V14.00,2013-05-30 14:10:00,
2013-05-30 10:15:00,81.3,72.6,29.99,ENE,57,6.0,6.0,75,0.00,,,0.00,VWS V14.00,2013-05-30 14:15:00,
2013-05-30 10:20:00,81.1,72.4,29.99,East,97,0.0,11.0,75,0.00,,,0.00,VWS V14.00,2013-05-30 14:20:00,
2013-05-30 10:25:00,81.3,73.0,29.99,ENE,68,8.0,11.0,76,0.00,,,0.00,VWS V14.00,2013-05-30 14:25:00,
2013-05-30 10:30:00,81.8,73.1,29.99,ESE,109,5.0,12.0,75,0.00,,,0.00,VWS V14.00,2013-05-30 14:30:00,
2013-05-30 10:35:00,82.0,72.9,29.99,ESE,119,11.0,13.0,74,0.00,,,0.00,VWS V14.00,2013-05-30 14:35:00,
2013-05-30 10:40:00,82.1,73.4,30.00,ENE,65,2.0,15.0,75,0.00,,,0.00,VWS V14.00,2013-05-30 14:40:00,
2013-05-30 10:45:00,82.5,73.0,29.99,ESE,113,4.0,11.0,73,0.00,,,0.00,VWS V14.00,2013-05-30 14:45:00,
2013-05-30 10:50:00,82.5,73.0,29.99,ESE,120,11.0,11.0,73,0.00,,,0.00,VWS V14.00,2013-05-30 14:50:00,
2013-05-30 10:55:00,82.6,73.1,29.99,ENE,63,6.0,13.0,73,0.00,,,0.00,VWS V14.00,2013-05-30 14:55:00,
2013-05-30 11:00:00,82.6,72.7,29.99,ENE,69,5.0,8.0,72,0.00,,,0.00,VWS V14.00,2013-05-30 15:00:00,
2013-05-30 11:05:00,82.4,72.9,29.99,ESE,113,1.0,12.0,73,0.00,,,0.00,VWS V14.00,2013-05-30 15:05:00,
2013-05-30 11:10:00,82.5,73.4,29.99,NE,44,7.0,13.0,74,0.00,,,0.00,VWS V14.00,2013-05-30 15:10:00,
2013-05-30 11:15:00,82.4,73.3,29.99,ESE,110,9.0,9.0,74,0.00,,,0.00,VWS V14.00,2013-05-30 15:15:00,
2013-05-30 11:20:00,82.8,73.7,29.99,SE,137,1.0,11.0,74,0.00,,,0.00,VWS V14.00,2013-05-30 15:20:00,
2013-05-30 11:25:00,83.3,73.8,29.98,ENE,63,1.0,14.0,73,0.00,,,0.00,VWS V14.00,2013-05-30 15:25:00,
2013-05-30 11:30:00,83.4,73.4,29.99,ESE,105,6.0,8.0,72,0.00,,,0.00,VWS V14.00,2013-05-30 15:30:00,
2013-05-30 11:35:00,83.7,73.7,29.99,ENE,75,6.0,14.0,72,0.00,,,0.00,VWS V14.00,2013-05-30 15:35:00,
2013-05-30 11:40:00,84.0,73.6,29.99,East,98,5.0,14.0,71,0.00,,,0.00,VWS V14.00,2013-05-30 15:40:00,
2013-05-30 11:45:00,84.1,73.3,29.99,ENE,57,3.0,8.0,70,0.00,,,0.00,VWS V14.00,2013-05-30 15:45:00,
2013-05-30 11:50:00,84.1,73.3,29.99,NE,45,6.0,17.0,70,0.00,,,0.00,VWS V14.00,2013-05-30 15:50:00,
2013-05-30 11:55:00,84.3,73.5,29.98,East,96,2.0,17.0,70,0.00,,,0.00,VWS V14.00,2013-05-30 15:55:00,
2013-05-30 12:00:00,84.4,73.6,29.99,ESE,113,4.0,6.0,70,0.00,,,0.00,VWS V14.00,2013-05-30 16:00:00,
2013-05-30 12:05:00,84.9,73.6,29.98,NE,53,6.0,12.0,69,0.00,,,0.00,VWS V14.00,2013-05-30 16:05:00,
2013-05-30 12:10:00,85.0,73.3,29.99,ESE,106,4.0,12.0,68,0.00,,,0.00,VWS V14.00,2013-05-30 16:10:00,
2013-05-30 12:15:00,84.8,73.5,29.99,East,94,4.0,8.0,69,0.00,,,0.00,VWS V14.00,2013-05-30 16:15:00,
2013-05-30 12:20:00,85.0,73.7,29.99,SE,126,12.0,12.0,69,0.00,,,0.00,VWS V14.00,2013-05-30 16:20:00,
2013-05-30 12:25:00,85.4,73.6,29.99,ENE,74,3.0,12.0,68,0.00,,,0.00,VWS V14.00,2013-05-30 16:25:00,
2013-05-30 12:30:00,85.7,73.0,29.98,NE,43,7.0,10.0,66,0.00,,,0.00,VWS V14.00,2013-05-30 16:30:00,
2013-05-30 12:35:00,85.6,73.4,29.98,ENE,63,3.0,13.0,67,0.00,,,0.00,VWS V14.00,2013-05-30 16:35:00,
2013-05-30 12:40:00,86.0,73.3,29.97,ENE,66,7.0,13.0,66,0.00,,,0.00,VWS V14.00,2013-05-30 16:40:00,
2013-05-30 12:45:00,85.8,73.1,29.98,East,99,5.0,6.0,66,0.00,,,0.00,VWS V14.00,2013-05-30 16:45:00,
2013-05-30 12:50:00,84.9,72.7,29.97,ESE,105,1.0,14.0,67,0.00,,,0.00,VWS V14.00,2013-05-30 16:50:00,
2013-05-30 12:55:00,84.4,73.1,29.97,ESE,116,9.0,14.0,69,0.00,,,0.00,VWS V14.00,2013-05-30 16:55:00,
2013-05-30 13:00:00,85.2,73.0,29.97,East,94,6.0,15.0,67,0.00,,,0.00,VWS V14.00,2013-05-30 17:00:00,
2013-05-30 13:05:00,86.2,73.1,29.97,SE,136,8.0,15.0,65,0.00,,,0.00,VWS V14.00,2013-05-30 17:05:00,
2013-05-30 13:10:00,86.7,72.6,29.97,ENE,74,6.0,15.0,63,0.00,,,0.00,VWS V14.00,2013-05-30 17:10:00,
2013-05-30 13:15:00,87.0,73.4,29.97,ENE,65,4.0,7.0,64,0.00,,,0.00,VWS V14.00,2013-05-30 17:15:00,
2013-05-30 13:20:00,87.2,74.0,29.97,ESE,113,4.0,16.0,65,0.00,,,0.00,VWS V14.00,2013-05-30 17:20:00,
2013-05-30 13:25:00,87.5,74.3,29.97,ENE,71,3.0,16.0,65,0.00,,,0.00,VWS V14.00,2013-05-30 17:25:00,
2013-05-30 13:30:00,87.8,74.6,29.97,ESE,121,5.0,7.0,65,0.00,,,0.00,VWS V14.00,2013-05-30 17:30:00,
2013-05-30 13:35:00,87.8,74.1,29.97,East,82,7.0,15.0,64,0.00,,,0.00,VWS V14.00,2013-05-30 17:35:00,
2013-05-30 13:40:00,86.3,73.2,29.97,ENE,76,5.0,15.0,65,0.00,,,0.00,VWS V14.00,2013-05-30 17:40:00,
2013-05-30 13:45:00,85.4,73.2,29.97,ESE,123,0.0,6.0,67,0.00,,,0.00,VWS V14.00,2013-05-30 17:45:00,
2013-05-30 13:50:00,85.3,72.7,29.96,NE,38,2.0,11.0,66,0.00,,,0.00,VWS V14.00,2013-05-30 17:50:00,
2013-05-30 13:55:00,85.9,71.8,29.96,East,88,4.0,13.0,63,0.00,,,0.00,VWS V14.00,2013-05-30 17:55:00,
2013-05-30 14:00:00,86.6,72.5,29.96,ESE,120,11.0,12.0,63,0.00,,,0.00,VWS V14.00,2013-05-30 18:00:00,
2013-05-30 14:05:00,87.2,73.1,29.95,North,5,6.0,14.0,63,0.00,,,0.00,VWS V14.00,2013-05-30 18:05:00,
2013-05-30 14:10:00,87.5,72.9,29.95,East,96,8.0,14.0,62,0.00,,,0.00,VWS V14.00,2013-05-30 18:10:00,
2013-05-30 14:15:00,86.8,73.6,29.96,ENE,59,4.0,10.0,65,0.00,,,0.00,VWS V14.00,2013-05-30 18:15:00,
2013-05-30 14:20:00,85.5,73.3,29.96,ENE,62,4.0,14.0,67,0.00,,,0.00,VWS V14.00,2013-05-30 18:20:00,
2013-05-30 14:25:00,85.0,73.3,29.96,ENE,70,6.0,14.0,68,0.00,,,0.00,VWS V14.00,2013-05-30 18:25:00,
2013-05-30 14:30:00,85.7,73.5,29.95,East,94,7.0,11.0,67,0.00,,,0.00,VWS V14.00,2013-05-30 18:30:00,
2013-05-30 14:35:00,85.9,72.8,29.95,ENE,70,4.0,14.0,65,0.00,,,0.00,VWS V14.00,2013-05-30 18:35:00,
2013-05-30 14:40:00,86.3,73.2,29.95,SE,132,6.0,14.0,65,0.00,,,0.00,VWS V14.00,2013-05-30 18:40:00,
2013-05-30 14:45:00,86.5,73.8,29.95,NE,42,9.0,14.0,66,0.00,,,0.00,VWS V14.00,2013-05-30 18:45:00,
2013-05-30 14:50:00,86.0,74.7,29.95,East,80,3.0,16.0,69,0.00,,,0.00,VWS V14.00,2013-05-30 18:50:00,
2013-05-30 14:55:00,85.9,73.7,29.95,ENE,60,4.0,16.0,67,0.00,,,0.00,VWS V14.00,2013-05-30 18:55:00,
2013-05-30 15:00:00,85.6,74.3,29.95,NE,42,7.0,16.0,69,0.00,,,0.00,VWS V14.00,2013-05-30 19:00:00,
2013-05-30 15:05:00,85.0,74.1,29.95,NNE,27,14.0,18.0,70,0.00,,,0.00,VWS V14.00,2013-05-30 19:05:00,
2013-05-30 15:10:00,84.3,74.3,29.95,NE,34,8.0,18.0,72,0.00,,,0.00,VWS V14.00,2013-05-30 19:10:00,
2013-05-30 15:15:00,84.0,74.4,29.95,ESE,112,0.0,12.0,73,0.00,,,0.00,VWS V14.00,2013-05-30 19:15:00,
2013-05-30 15:20:00,83.7,73.7,29.94,NE,55,7.0,14.0,72,0.00,,,0.00,VWS V14.00,2013-05-30 19:20:00,
2013-05-30 15:25:00,83.6,73.6,29.94,SE,133,7.0,14.0,72,0.00,,,0.00,VWS V14.00,2013-05-30 19:25:00,
2013-05-30 15:30:00,84.1,74.1,29.94,ENE,68,1.0,7.0,72,0.00,,,0.00,VWS V14.00,2013-05-30 19:30:00,
2013-05-30 15:35:00,85.2,73.4,29.94,SE,134,1.0,13.0,68,0.00,,,0.00,VWS V14.00,2013-05-30 19:35:00,
2013-05-30 15:40:00,85.2,73.0,29.93,ENE,76,4.0,15.0,67,0.00,,,0.00,VWS V14.00,2013-05-30 19:40:00,
2013-05-30 15:45:00,85.0,73.3,29.93,ESE,103,0.0,6.0,68,0.00,,,0.00,VWS V14.00,2013-05-30 19:45:00,
2013-05-30 15:50:00,84.9,73.2,29.93,NE,53,5.0,9.0,68,0.00,,,0.00,VWS V14.00,2013-05-30 19:50:00,
2013-05-30 15:55:00,84.5,72.8,29.93,ENE,61,7.0,15.0,68,0.00,,,0.00,VWS V14.00,2013-05-30 19:55:00,
2013-05-30 16:00:00,84.1,73.3,29.93,ESE,123,5.0,8.0,70,0.00,,,0.00,VWS V14.00,2013-05-30 20:00:00,
2013-05-30 16:05:00,84.0,72.7,29.93,ENE,61,6.0,11.0,69,0.00,,,0.00,VWS V14.00,2013-05-30 20:05:00,
2013-05-30 16:10:00,83.8,72.6,29.93,ENE,61,3.0,14.0,69,0.00,,,0.00,VWS V14.00,2013-05-30 20:10:00,
2013-05-30 16:15:00,83.9,73.1,29.93,ENE,72,5.0,12.0,70,0.00,,,0.00,VWS V14.00,2013-05-30 20:15:00,
2013-05-30 16:20:00,84.1,73.3,29.93,East,89,5.0,12.0,70,0.00,,,0.00,VWS V14.00,2013-05-30 20:20:00,
2013-05-30 16:25:00,83.9,73.1,29.93,SE,137,5.0,12.0,70,0.00,,,0.00,VWS V14.00,2013-05-30 20:25:00,
2013-05-30 16:30:00,84.0,72.7,29.92,ESE,106,2.0,16.0,69,0.00,,,0.00,VWS V14.00,2013-05-30 20:30:00,
2013-05-30 16:35:00,84.3,73.0,29.92,ESE,108,7.0,16.0,69,0.00,,,0.00,VWS V14.00,2013-05-30 20:35:00,
2013-05-30 16:40:00,84.6,72.4,29.92,ESE,108,0.0,16.0,67,0.00,,,0.00,VWS V14.00,2013-05-30 20:40:00,
2013-05-30 16:45:00,84.5,72.8,29.92,East,90,5.0,5.0,68,0.00,,,0.00,VWS V14.00,2013-05-30 20:45:00,
2013-05-30 16:50:00,84.6,72.4,29.91,SE,128,1.0,13.0,67,0.00,,,0.00,VWS V14.00,2013-05-30 20:50:00,
2013-05-30 16:55:00,84.8,72.2,29.92,ESE,104,5.0,13.0,66,0.00,,,0.00,VWS V14.00,2013-05-30 20:55:00,
2013-05-30 17:00:00,85.0,71.9,29.92,SE,146,7.0,8.0,65,0.00,,,0.00,VWS V14.00,2013-05-30 21:00:00,
2013-05-30 17:05:00,84.9,71.8,29.91,ESE,110,4.0,14.0,65,0.00,,,0.00,VWS V14.00,2013-05-30 21:05:00,
2013-05-30 17:10:00,84.9,72.3,29.92,East,84,1.0,14.0,66,0.00,,,0.00,VWS V14.00,2013-05-30 21:10:00,
2013-05-30 17:15:00,84.7,72.1,29.91,SE,132,12.0,13.0,66,0.00,,,0.00,VWS V14.00,2013-05-30 21:15:00,
2013-05-30 17:20:00,84.5,71.9,29.91,East,98,6.0,14.0,66,0.00,,,0.00,VWS V14.00,2013-05-30 21:20:00,
2013-05-30 17:25:00,84.6,72.0,29.91,ESE,103,7.0,14.0,66,0.00,,,0.00,VWS V14.00,2013-05-30 21:25:00,
2013-05-30 17:30:00,84.5,72.8,29.91,NE,53,7.0,8.0,68,0.00,,,0.00,VWS V14.00,2013-05-30 21:30:00,
2013-05-30 17:35:00,84.1,72.8,29.92,ENE,69,0.0,9.0,69,0.00,,,0.00,VWS V14.00,2013-05-30 21:35:00,
2013-05-30 17:40:00,82.8,72.4,29.93,ESE,121,16.0,21.0,71,0.00,,,0.00,VWS V14.00,2013-05-30 21:40:00,
2013-05-30 17:45:00,80.9,72.2,29.93,ESE,112,0.0,6.0,75,0.00,,,0.00,VWS V14.00,2013-05-30 21:45:00,
2013-05-30 17:50:00,80.1,72.2,29.93,East,98,4.0,9.0,77,0.00,,,0.00,VWS V14.00,2013-05-30 21:50:00,
2013-05-30 17:55:00,79.8,72.7,29.93,ESE,105,0.0,9.0,79,0.00,,,0.00,VWS V14.00,2013-05-30 21:55:00,
2013-05-30 18:00:00,79.6,72.9,29.93,East,93,2.0,2.0,80,0.00,,,0.00,VWS V14.00,2013-05-30 22:00:00,
2013-05-30 18:05:00,79.6,72.9,29.93,East,82,2.0,8.0,80,0.00,,,0.00,VWS V14.00,2013-05-30 22:05:00,
2013-05-30 18:10:00,79.6,73.6,29.93,ENE,78,1.0,8.0,82,0.00,,,0.00,VWS V14.00,2013-05-30 22:10:00,
2013-05-30 18:15:00,79.4,73.4,29.93,ESE,117,0.0,5.0,82,0.00,,,0.00,VWS V14.00,2013-05-30 22:15:00,
2013-05-30 18:20:00,79.3,73.7,29.93,East,97,2.0,7.0,83,0.00,,,0.00,VWS V14.00,2013-05-30 22:20:00,
2013-05-30 18:25:00,79.2,73.6,29.94,SE,124,4.0,8.0,83,0.00,,,0.00,VWS V14.00,2013-05-30 22:25:00,
2013-05-30 18:30:00,78.8,72.8,29.94,ENE,57,8.0,12.0,82,0.01,,,0.01,VWS V14.00,2013-05-30 22:30:00,
2013-05-30 18:35:00,78.1,72.2,29.94,ENE,61,2.0,12.0,82,0.01,,,0.01,VWS V14.00,2013-05-30 22:35:00,
2013-05-30 18:40:00,77.4,71.8,29.94,SE,138,9.0,13.0,83,0.01,,,0.01,VWS V14.00,2013-05-30 22:40:00,
2013-05-30 18:45:00,77.1,71.9,29.94,East,86,2.0,8.0,84,0.01,,,0.01,VWS V14.00,2013-05-30 22:45:00,
2013-05-30 18:50:00,76.9,71.7,29.94,ENE,63,4.0,8.0,84,0.01,,,0.01,VWS V14.00,2013-05-30 22:50:00,
2013-05-30 18:55:00,76.8,71.9,29.94,ENE,67,1.0,9.0,85,0.01,,,0.01,VWS V14.00,2013-05-30 22:55:00,
2013-05-30 19:00:00,76.8,71.9,29.95,East,94,1.0,6.0,85,0.01,,,0.01,VWS V14.00,2013-05-30 23:00:00,
2013-05-30 19:05:00,76.9,72.4,29.95,East,92,2.0,6.0,86,0.01,,,0.01,VWS V14.00,2013-05-30 23:05:00,
2013-05-30 19:10:00,77.0,72.2,29.95,ESE,122,1.0,10.0,85,0.01,,,0.01,VWS V14.00,2013-05-30 23:10:00,
2013-05-30 19:15:00,77.0,72.5,29.95,East,94,5.0,5.0,86,0.01,,,0.01,VWS V14.00,2013-05-30 23:15:00,
2013-05-30 19:20:00,77.0,72.5,29.95,ENE,78,5.0,11.0,86,0.01,,,0.01,VWS V14.00,2013-05-30 23:20:00,
2013-05-30 19:25:00,77.1,72.6,29.95,East,92,2.0,11.0,86,0.01,,,0.01,VWS V14.00,2013-05-30 23:25:00,
2013-05-30 19:30:00,77.2,72.7,29.96,East,83,3.0,5.0,86,0.00,,,0.01,VWS V14.00,2013-05-30 23:30:00,
2013-05-30 19:35:00,77.3,72.4,29.95,East,99,0.0,7.0,85,0.00,,,0.01,VWS V14.00,2013-05-30 23:35:00,
2013-05-30 19:40:00,77.4,72.5,29.95,East,94,2.0,7.0,85,0.00,,,0.01,VWS V14.00,2013-05-30 23:40:00,
2013-05-30 19:45:00,77.5,72.6,29.96,ENE,76,2.0,7.0,85,0.00,,,0.01,VWS V14.00,2013-05-30 23:45:00,
2013-05-30 19:50:00,77.6,72.7,29.96,ENE,68,0.0,10.0,85,0.00,,,0.01,VWS V14.00,2013-05-30 23:50:00,
2013-05-30 19:55:00,77.7,72.5,29.96,SE,128,8.0,10.0,84,0.00,,,0.01,VWS V14.00,2013-05-30 23:55:00,
2013-05-30 20:00:00,77.8,72.6,29.96,ESE,105,0.0,8.0,84,0.00,,,0.01,VWS V14.00,2013-05-31 00:00:00,
2013-05-30 20:05:00,77.8,72.6,29.97,East,92,0.0,8.0,84,0.00,,,0.01,VWS V14.00,2013-05-31 00:05:00,
2013-05-30 20:10:00,77.9,72.3,29.96,East,86,3.0,8.0,83,0.00,,,0.01,VWS V14.00,2013-05-31 00:10:00,
2013-05-30 20:15:00,78.0,72.4,29.96,SE,137,1.0,4.0,83,0.00,,,0.01,VWS V14.00,2013-05-31 00:15:00,
2013-05-30 20:20:00,78.0,72.4,29.96,ESE,114,4.0,7.0,83,0.00,,,0.01,VWS V14.00,2013-05-31 00:20:00,
2013-05-30 20:25:00,78.0,72.4,29.96,ESE,109,1.0,10.0,83,0.00,,,0.01,VWS V14.00,2013-05-31 00:25:00,
2013-05-30 20:30:00,78.0,72.4,29.97,ENE,63,5.0,5.0,83,0.00,,,0.01,VWS V14.00,2013-05-31 00:30:00,
2013-05-30 20:35:00,77.9,72.3,29.97,ESE,103,4.0,7.0,83,0.00,,,0.01,VWS V14.00,2013-05-31 00:35:00,
2013-05-30 20:40:00,77.7,72.1,29.97,ENE,61,2.0,8.0,83,0.00,,,0.01,VWS V14.00,2013-05-31 00:40:00,
2013-05-30 20:45:00,77.6,72.4,29.97,ESE,123,1.0,7.0,84,0.00,,,0.01,VWS V14.00,2013-05-31 00:45:00,
2013-05-30 20:50:00,77.4,72.2,29.97,ENE,72,2.0,7.0,84,0.00,,,0.01,VWS V14.00,2013-05-31 00:50:00,
2013-05-30 20:55:00,77.1,71.5,29.97,ENE,62,4.0,7.0,83,0.00,,,0.01,VWS V14.00,2013-05-31 00:55:00,
2013-05-30 21:00:00,77.0,71.4,29.97,East,81,0.0,2.0,83,0.00,,,0.01,VWS V14.00,2013-05-31 01:00:00,
2013-05-30 21:05:00,76.8,71.2,29.97,NE,49,0.0,7.0,83,0.00,,,0.01,VWS V14.00,2013-05-31 01:05:00,
2013-05-30 21:10:00,76.7,71.5,29.98,ENE,59,2.0,7.0,84,0.00,,,0.01,VWS V14.00,2013-05-31 01:10:00,
2013-05-30 21:15:00,76.6,71.4,29.98,ENE,64,3.0,5.0,84,0.00,,,0.01,VWS V14.00,2013-05-31 01:15:00,
2013-05-30 21:20:00,76.5,71.3,29.98,East,96,0.0,7.0,84,0.00,,,0.01,VWS V14.00,2013-05-31 01:20:00,
2013-05-30 21:25:00,76.5,71.3,29.98,ENE,78,4.0,11.0,84,0.00,,,0.01,VWS V14.00,2013-05-31 01:25:00,
2013-05-30 21:30:00,76.4,71.2,29.99,ESE,109,1.0,2.0,84,0.00,,,0.01,VWS V14.00,2013-05-31 01:30:00,
2013-05-30 21:35:00,76.3,71.1,29.99,ENE,61,3.0,6.0,84,0.00,,,0.01,VWS V14.00,2013-05-31 01:35:00,
2013-05-30 21:40:00,76.2,71.0,29.99,East,82,2.0,6.0,84,0.00,,,0.01,VWS V14.00,2013-05-31 01:40:00,
2013-05-30 21:45:00,76.0,70.8,29.99,ENE,58,1.0,2.0,84,0.00,,,0.01,VWS V14.00,2013-05-31 01:45:00,
2013-05-30 21:50:00,75.9,70.7,29.99,East,90,2.0,6.0,84,0.00,,,0.01,VWS V14.00,2013-05-31 01:50:00,
2013-05-30 21:55:00,75.9,71.1,29.99,East,79,0.0,6.0,85,0.00,,,0.01,VWS V14.00,2013-05-31 01:55:00,
2013-05-30 22:00:00,75.7,70.9,29.99,ESE,113,0.0,2.0,85,0.00,,,0.01,VWS V14.00,2013-05-31 02:00:00,
2013-05-30 22:05:00,75.7,70.9,30.00,East,94,1.0,7.0,85,0.00,,,0.01,VWS V14.00,2013-05-31 02:05:00,
2013-05-30 22:10:00,75.7,70.9,30.00,ESE,119,2.0,7.0,85,0.00,,,0.01,VWS V14.00,2013-05-31 02:10:00,
2013-05-30 22:15:00,75.6,70.8,30.00,East,90,0.0,6.0,85,0.00,,,0.01,VWS V14.00,2013-05-31 02:15:00,
2013-05-30 22:20:00,75.6,71.1,30.00,ESE,121,1.0,6.0,86,0.00,,,0.01,VWS V14.00,2013-05-31 02:20:00,
2013-05-30 22:25:00,75.6,71.1,30.00,ESE,113,1.0,6.0,86,0.00,,,0.01,VWS V14.00,2013-05-31 02:25:00,
2013-05-30 22:30:00,75.6,71.1,30.00,ESE,106,0.0,2.0,86,0.00,,,0.01,VWS V14.00,2013-05-31 02:30:00,
2013-05-30 22:35:00,75.6,71.1,30.00,ESE,105,0.0,5.0,86,0.00,,,0.01,VWS V14.00,2013-05-31 02:35:00,
2013-05-30 22:40:00,75.5,71.0,30.00,ESE,103,0.0,5.0,86,0.00,,,0.01,VWS V14.00,2013-05-31 02:40:00,
2013-05-30 22:45:00,75.5,71.0,30.00,East,98,1.0,1.0,86,0.00,,,0.01,VWS V14.00,2013-05-31 02:45:00,
2013-05-30 22:50:00,75.5,71.0,30.00,East,88,0.0,6.0,86,0.00,,,0.01,VWS V14.00,2013-05-31 02:50:00,
2013-05-30 22:55:00,75.5,71.0,30.00,ESE,113,1.0,10.0,86,0.00,,,0.01,VWS V14.00,2013-05-31 02:55:00,
2013-05-30 23:00:00,75.5,71.0,30.00,ESE,109,4.0,4.0,86,0.00,,,0.01,VWS V14.00,2013-05-31 03:00:00,
2013-05-30 23:05:00,75.5,71.0,30.00,ENE,65,3.0,8.0,86,0.00,,,0.01,VWS V14.00,2013-05-31 03:05:00,
2013-05-30 23:10:00,75.4,70.9,30.00,ENE,65,3.0,8.0,86,0.00,,,0.01,VWS V14.00,2013-05-31 03:10:00,
2013-05-30 23:15:00,75.4,70.9,30.00,ESE,103,5.0,7.0,86,0.00,,,0.01,VWS V14.00,2013-05-31 03:15:00,
2013-05-30 23:20:00,75.3,70.8,30.00,ESE,119,6.0,8.0,86,0.00,,,0.01,VWS V14.00,2013-05-31 03:20:00,
2013-05-30 23:25:00,75.3,70.8,30.00,ESE,113,0.0,8.0,86,0.00,,,0.01,VWS V14.00,2013-05-31 03:25:00,
2013-05-30 23:30:00,75.2,70.7,30.00,ESE,103,0.0,2.0,86,0.00,,,0.01,VWS V14.00,2013-05-31 03:30:00,
2013-05-30 23:35:00,75.1,70.6,30.00,ESE,103,2.0,8.0,86,0.00,,,0.01,VWS V14.00,2013-05-31 03:35:00,
2013-05-30 23:40:00,75.1,70.6,30.00,ESE,116,0.0,8.0,86,0.00,,,0.01,VWS V14.00,2013-05-31 03:40:00,
2013-05-30 23:45:00,75.0,70.5,30.00,ESE,115,0.0,2.0,86,0.00,,,0.01,VWS V14.00,2013-05-31 03:45:00,
2013-05-30 23:50:00,74.9,70.4,30.00,NE,53,0.0,10.0,86,0.00,,,0.01,VWS V14.00,2013-05-31 03:50:00,
2013-05-30 23:55:00,74.9,70.4,30.00,ENE,66,2.0,10.0,86,0.00,,,0.01,VWS V14.00,2013-05-31 03:55:00,